Location: Brantley
(31.5822°N, 86.2569°W)
Time: 03:04:49
(UTC+00:00)

Vanguard 2 - Pass Details

Date: 24 February 2026
Orbit: 553 x 2896 km, 32.9° (Epoch: 7 March)

Event Time Altitude Azimuth Distance (km) Brightness Sun altitude
Rises 05:02:27 0° 196° (SSW) 6,571 - -64.4°
Reaches altitude 10° 05:09:53 10° 177° (S) 5,235 - -65.2°
Maximum altitude 05:17:09 15° 148° (SSE) 4,322 - -65.9°
Drops below altitude 10° 05:23:14 10° 117° (ESE) 4,258 - -66.4°
Sets 05:28:03 0° 96° (E) 4,785 - -66.8°
